Stations météo

réclame
Mon MeteoGroup
Huelva, Espagne (8383): Température de l'air & dewpoint: 12.01.2020 14:00:00 - 18.01.2020 14:00:00 (CET)Huelva, Espagne (8383): Vitesse du vent: 12.01.2020 14:00:00 - 18.01.2020 14:00:00 (CET)Huelva, Espagne (8383): Direction du vent: 12.01.2020 14:00:00 - 18.01.2020 14:00:00 (CET)Huelva, Espagne (8383): reduced air pressure: 12.01.2020 14:00:00 - 18.01.2020 14:00:00 (CET)Huelva, Espagne (8383): visibility: 12.01.2020 14:00:00 - 18.01.2020 14:00:00 (CET)Huelva, Espagne (8383): Quantités de précipitations: 12.01.2020 14:00:00 - 18.01.2020 14:00:00 (CET)
Date & Time tt [°C] td [°C] ff [km/h] ff [knt] dd ppp [hPa] vv [km] rr [mm]
18.01.2020 14:00:00 16,3 15,7 21 11 SW 1028,7 11 0,2
18.01.2020 13:00:00 16,4 15,8 18 10 SW 1029,8 1,3 -
18.01.2020 12:00:00 15,6 15,4 13 7 SSW 1030,8 3,3 0,2
18.01.2020 11:00:00 12,9 12,7 8 4 S 1031,0 1,9 0,2
18.01.2020 10:00:00 11,6 11,3 5 3 E 1031,1 1,7 -
18.01.2020 09:00:00 11,1 10,5 4 2 SE 1031,0 4,5 0,2
18.01.2020 08:00:00 10,4 9,5 4 2 E 1030,7 12 0,2
18.01.2020 07:00:00 10,5 9,4 4 2 NNE 1031,0 11 -
18.01.2020 06:00:00 10,2 9,3 2 1 NNE 1030,7 13 0,0
18.01.2020 05:00:00 9,7 8,8 8 4 NE 1030,8 17 0,0
18.01.2020 04:00:00 10,0 9,1 4 2 NE 1031,3 13 -
18.01.2020 03:00:00 10,0 9,2 5 3 NE 1031,7 12 0,0
18.01.2020 02:00:00 9,8 9,2 8 4 NE 1032,0 9 0,0
18.01.2020 01:00:00 10,0 9,2 5 3 NE 1032,8 6 -
18.01.2020 00:00:00 10,6 9,8 9 5 NE 1032,7 7 0,0
17.01.2020 23:00:00 11,4 10,6 5 3 NNE 1032,8 9 0,0
17.01.2020 22:00:00 12,6 11,3 5 3 NNE 1032,7 11 -
17.01.2020 21:00:00 13,0 10,9 2 1 E 1032,7 14 0,0
17.01.2020 20:00:00 14,2 11,7 0 0 N 1032,3 19 0,0
17.01.2020 19:00:00 15,5 11,5 2 1 WSW 1031,7 19 -
17.01.2020 18:00:00 17,7 12,4 4 2 E 1031,4 20 0,0
17.01.2020 17:00:00 18,4 12,2 9 5 S 1031,3 4,3 0,0
17.01.2020 16:00:00 18,7 12,4 5 3 S 1031,3 16 -
17.01.2020 15:00:00 16,6 12,9 5 3 E 1031,6 14 0,0
17.01.2020 14:00:00 15,7 13,7 8 4 NE 1032,2 6 0,0
17.01.2020 13:00:00 14,2 13,1 8 4 NE 1033,1 2,8 -
17.01.2020 12:00:00 13,5 13,2 8 4 NNE 1033,8 4,9 0,0
17.01.2020 11:00:00 13,4 13,2 5 3 NE 1033,3 0,3 0,0
17.01.2020 10:00:00 13,2 12,9 8 4 ENE 1032,4 0,4 -
17.01.2020 09:00:00 13,1 12,6 5 3 ENE 1032,2 5 0,0
17.01.2020 08:00:00 13,3 12,8 8 4 NNE 1031,1 6 0,0
17.01.2020 07:00:00 13,5 13,0 8 4 NNE 1030,6 4,9 -
17.01.2020 06:00:00 13,8 13,0 5 3 NNE 1029,9 6 0,0
17.01.2020 05:00:00 14,7 13,6 4 2 WSW 1029,7 14 0,4
17.01.2020 04:00:00 14,7 13,2 2 1 SW 1029,7 15 -
17.01.2020 03:00:00 15,0 13,2 5 3 SSW 1029,6 8 0,0
17.01.2020 02:00:00 15,3 12,6 8 4 SSW 1029,4 18 0,0
17.01.2020 01:00:00 15,2 12,5 11 6 S 1029,5 19 -
17.01.2020 00:00:00 15,1 12,6 11 6 SSW 1029,7 18 0,0
16.01.2020 23:00:00 14,8 12,5 8 4 SSW 1029,3 15 0,0
16.01.2020 22:00:00 14,3 12,7 9 5 SW 1028,9 18 -
16.01.2020 21:00:00 13,9 12,3 9 5 SSW 1028,7 17 0,0
16.01.2020 20:00:00 13,9 11,9 9 5 SSW 1028,5 19 0,0
16.01.2020 19:00:00 14,1 11,8 5 3 S 1027,9 10 -
16.01.2020 18:00:00 15,8 12,5 11 6 S 1027,6 13 0,0
16.01.2020 17:00:00 17,4 12,1 16 9 S 1027,3 20 0,0
16.01.2020 16:00:00 18,3 9,9 18 10 S 1027,3 20 -
16.01.2020 15:00:00 18,7 8,9 16 9 S 1027,4 20 0,0
16.01.2020 14:00:00 18,7 7,5 16 9 S 1027,9 20 0,0
16.01.2020 13:00:00 17,2 8,6 11 6 SSE 1028,8 20 -
16.01.2020 12:00:00 14,5 9,3 8 4 E 1029,2 12 0,0
16.01.2020 11:00:00 11,8 9,4 8 4 ENE 1029,1 9 0,0
16.01.2020 10:00:00 10,1 8,7 9 5 NE 1028,7 7 -
16.01.2020 09:00:00 9,1 8,3 5 3 NE 1028,2 - 0,0
16.01.2020 08:00:00 9,5 8,9 4 2 ENE 1027,9 - 0,0
16.01.2020 07:00:00 9,0 8,5 8 4 NE 1027,6 4,6 -
16.01.2020 06:00:00 8,9 8,3 5 3 NE 1027,3 4,9 0,0
16.01.2020 05:00:00 9,6 9,0 8 4 NE 1027,4 6 0,0
16.01.2020 04:00:00 10,2 9,7 9 5 NE 1027,2 4,7 -
16.01.2020 03:00:00 11,3 10,8 8 4 NE 1027,3 4,0 0,0
16.01.2020 02:00:00 11,9 11,4 5 3 E 1027,3 6 0,0
16.01.2020 01:00:00 12,3 11,7 4 2 E 1027,4 6 -
16.01.2020 00:00:00 12,4 11,8 5 3 SE 1027,6 - 0,0
15.01.2020 23:00:00 12,7 12,1 4 2 S 1027,6 4,9 0,0
15.01.2020 22:00:00 13,6 12,8 2 1 ENE 1027,3 - -
15.01.2020 21:00:00 14,1 12,8 2 1 S 1027,0 7 0,0
15.01.2020 20:00:00 15,0 13,4 5 3 SSE 1026,7 11 0,0
15.01.2020 19:00:00 16,2 13,5 11 6 S 1026,4 17 -
15.01.2020 18:00:00 17,5 13,6 18 10 S 1025,9 19 0,0
15.01.2020 17:00:00 18,3 13,8 21 11 S 1025,7 19 0,0
15.01.2020 16:00:00 18,2 14,3 18 10 S 1025,3 15 -
15.01.2020 15:00:00 18,6 14,1 22 12 S 1025,1 14 0,0
15.01.2020 14:00:00 17,6 13,5 22 12 S 1025,4 13 0,0
15.01.2020 13:00:00 17,2 13,1 22 12 SSE 1026,0 15 -
15.01.2020 12:00:00 15,2 11,4 8 4 ESE 1026,6 19 0,0
15.01.2020 11:00:00 12,6 9,8 8 4 E 1026,3 18 0,0
15.01.2020 10:00:00 10,2 8,1 8 4 E 1025,8 14 -
15.01.2020 09:00:00 8,3 6,9 8 4 ENE 1025,3 10 0,0
15.01.2020 08:00:00 7,8 6,3 8 4 ENE 1024,9 10 0,0
15.01.2020 07:00:00 7,7 6,0 9 5 NE 1024,4 10 -
15.01.2020 06:00:00 7,6 5,9 11 6 NE 1024,0 11 0,0
15.01.2020 05:00:00 8,3 6,4 9 5 NE 1024,1 13 0,0
15.01.2020 04:00:00 7,5 6,3 9 5 NE 1024,1 12 -
15.01.2020 03:00:00 7,3 6,1 11 6 NE 1024,3 10 0,0
15.01.2020 02:00:00 8,0 6,8 8 4 ENE 1024,3 11 0,0
15.01.2020 01:00:00 8,6 7,2 11 6 NE 1024,5 11 -
15.01.2020 00:00:00 9,4 8,0 9 5 NE 1024,7 17 0,0
14.01.2020 23:00:00 10,4 8,8 2 1 S 1024,5 20 0,0
14.01.2020 22:00:00 10,3 8,4 8 4 S 1024,5 20 -
14.01.2020 21:00:00 10,9 8,6 8 4 S 1024,5 13 0,0
14.01.2020 20:00:00 12,0 9,2 8 4 S 1024,4 18 0,0
14.01.2020 19:00:00 13,2 9,8 11 6 S 1024,1 20 -
14.01.2020 18:00:00 14,2 9,8 15 8 S 1023,8 20 0,0
14.01.2020 17:00:00 15,0 9,4 15 8 SSE 1023,6 20 0,0
14.01.2020 16:00:00 15,8 9,0 18 10 SSE 1023,4 20 -
14.01.2020 15:00:00 15,3 8,5 15 8 SSE 1023,6 20 0,0
14.01.2020 14:00:00 15,9 8,6 13 7 SSE 1024,2 20 0,0
14.01.2020 13:00:00 13,2 8,9 4 2 E 1025,2 12 -
14.01.2020 12:00:00 10,4 7,5 8 4 ENE 1026,0 13 0,0
14.01.2020 11:00:00 6,6 5,2 5 3 NE 1026,1 10 0,0
14.01.2020 10:00:00 4,5 3,6 5 3 N 1025,8 4,0 -
14.01.2020 09:00:00 4,0 3,3 5 3 NNE 1025,1 14 0,0
14.01.2020 08:00:00 3,3 2,6 5 3 NNE 1024,8 15 0,0
14.01.2020 07:00:00 3,2 2,6 9 5 NE 1024,2 15 -
14.01.2020 06:00:00 3,4 2,8 8 4 NE 1024,1 9 0,0
14.01.2020 05:00:00 3,5 2,8 8 4 NE 1024,3 9 0,0
14.01.2020 04:00:00 4,9 4,2 5 3 NNE 1024,6 11 -
14.01.2020 03:00:00 5,1 4,5 5 3 N 1024,7 9 0,0
14.01.2020 02:00:00 5,5 4,8 8 4 NNE 1025,0 8 0,0
14.01.2020 01:00:00 5,7 4,5 9 5 NE 1025,4 9 -
14.01.2020 00:00:00 6,9 5,8 8 4 NE 1025,8 9 0,0
13.01.2020 23:00:00 7,6 6,5 5 3 NE 1025,7 9 0,0
13.01.2020 22:00:00 8,4 5,9 2 1 ESE 1025,6 11 -
13.01.2020 21:00:00 9,5 7,4 5 3 WSW 1025,7 16 0,0
13.01.2020 20:00:00 10,3 7,4 5 3 SSE 1025,8 15 0,0
13.01.2020 19:00:00 12,3 7,8 8 4 SSW 1025,8 20 -
13.01.2020 18:00:00 15,1 6,9 8 4 SW 1025,6 20 0,0
13.01.2020 17:00:00 15,8 7,3 11 6 SW 1025,7 20 0,0
13.01.2020 16:00:00 16,6 9,0 13 7 S 1025,6 20 -
13.01.2020 15:00:00 16,4 8,6 11 6 SW 1025,9 20 0,0
13.01.2020 14:00:00 15,8 7,8 5 3 S 1026,8 20 0,0
13.01.2020 13:00:00 14,0 6,8 4 2 E 1027,8 10 -
13.01.2020 12:00:00 11,6 5,5 8 4 NE 1029,1 20 0,0
13.01.2020 11:00:00 7,5 3,4 8 4 NNE 1029,1 20 0,0
13.01.2020 10:00:00 4,6 2,0 8 4 NNE 1028,2 7 -
13.01.2020 09:00:00 2,6 1,0 9 5 NE 1027,8 19 0,0
13.01.2020 08:00:00 2,6 1,0 8 4 NNE 1027,8 20 0,0
13.01.2020 07:00:00 3,0 1,0 8 4 NE 1027,5 20 -
13.01.2020 06:00:00 3,8 1,5 5 3 NNE 1027,7 20 0,0
13.01.2020 05:00:00 5,1 2,8 8 4 NNE 1027,9 20 0,0
13.01.2020 04:00:00 5,0 2,5 5 3 NNE 1028,1 20 -
13.01.2020 03:00:00 5,0 2,4 8 4 NE 1028,3 20 0,0
13.01.2020 02:00:00 5,5 2,3 8 4 NE 1028,7 20 0,0
13.01.2020 01:00:00 6,0 3,2 9 5 NE 1029,4 20 -
13.01.2020 00:00:00 7,7 2,4 5 3 NE 1030,0 20 0,0
12.01.2020 23:00:00 8,2 2,6 5 3 NW 1029,8 20 0,0
12.01.2020 22:00:00 9,6 2,9 5 3 NNE 1029,8 20 -
12.01.2020 21:00:00 11,2 3,2 2 1 W 1029,6 20 0,0
12.01.2020 20:00:00 13,0 3,4 8 4 WNW 1029,4 20 0,0
12.01.2020 19:00:00 15,0 3,2 8 4 WNW 1029,1 20 -
12.01.2020 18:00:00 18,2 3,6 4 2 WNW 1028,8 20 0,0
12.01.2020 17:00:00 17,9 3,0 4 2 NE 1028,9 20 0,0
12.01.2020 16:00:00 18,1 3,2 5 3 NNW 1029,0 20 -
12.01.2020 15:00:00 17,7 3,6 4 2 E 1029,4 20 0,0
12.01.2020 14:00:00 16,6 4,3 4 2 NNE 1030,5 20 0,0

tt = Température de l'air
td = dewpoint
ff = Vitesse du vent
dd = Direction du vent
ppp = reduced air pressure
vv = visibility
rr = Quantités de précipitations

stations d'obs. à proximité